Location: Amsterdam
(30.7274°N, 84.4357°W)
Time: 19:25:17
(UTC+00:00)

Tiros 1 - Pass Details

Date: 18 February 2026
Orbit: 618 x 649 km, 48.4° (Epoch: 10 March)

Event Time Altitude Azimuth Distance (km) Brightness Sun altitude
Rises 18:18:18 0° 323° (NW) 2,890 10.2 47.4°
Reaches altitude 10° 18:22:00 10° 353° (N) 1,980 9.4 47.2°
Maximum altitude 18:23:54 12° 18° (NNE) 1,825 9.2 47.1°
Drops below altitude 10° 18:25:48 10° 43° (NE) 1,977 9.4 47.1°
Sets 18:29:29 0° 74° (ENE) 2,881 10.3 46.9°
